Weather History for Reidsville, NC

Change the Weather History Date:

Sunday, December 16, 2012

  Actual Average (KGSO) Record (KGSO)
Temperature  
Mean Temperature 46 °F 41 °F  
Max Temperature 50 °F 50 °F 78 °F (1971)
Min Temperature 41 °F 32 °F 5 °F (1958)
Degree Days  
Heating Degree Days 20 24  
Month to date heating degree days 355  
Since 1 July heating degree days 1035  
Cooling Degree Days 0 0  
Month to date cooling degree days 0  
Year to date cooling degree days 1483  
Moisture  
Dew Point 46 °F    
Average Humidity 95    
Maximum Humidity 99    
Minimum Humidity 85    
Precipitation  
Precipitation 0.12 in 0.09 in 1.35 in (1918)
Month to date precipitation 1.57  
Year to date precipitation 40.79  
Snow  
Snow 0.00 in 0.00 in 4.60 in (1973)
Month to date snowfall 0.2  
Since 1 July snowfall 0.3  
Snow Depth -    
Sea Level Pressure  
Sea Level Pressure 29.99 in    
Wind  
Wind Speed 2 mph (SW)    
Max Wind Speed 8 mph    
Max Gust Speed 18 mph    
Visibility 7 miles    
Events Rain    
T = Trace of Precipitation, MM = Missing Value Source: NWS Daily Summary

Daily Weather History Graph

Daily Weather History Graph

Search for Another Location

Airport:

Trip Planner

Search our weather history database for the weather conditions in past years. The results will help you decide how hot, cold, wet, or windy it might be!

Date:

Astronomy

Dec. 16, 2012 Rise Set
Actual Time 7:24 AM EST 5:05 PM EST
Civil Twilight 6:56 AM EST 5:34 PM EST
Nautical Twilight 6:23 AM EST 6:06 PM EST
Astronomical Twilight 5:52 AM EST 6:38 PM EST
Moon 10:02 AM EST (12/16) 9:12 PM EST (12/16)
Length of Visible Light 10h 38m
Length of Day
9h 41m
Waxing Crescent, 16% of the Moon is Illuminated
Dec 16
Waxing Crescent
Dec 20
First Quarter
Dec 28
Full
Jan 4
Last Quarter
Jan 11
New

Hourly Weather History & Observations

Time (EST) Temp. Dew Point Humidity Pressure Visibility Wind Dir Wind Speed Gust Speed Precip Events Conditions
12:15 AM 41.4 °F 40.1 °F 95% 30.07 in 10.0 mi Calm Calm - N/A   Mostly Cloudy
12:35 AM 42.1 °F 40.6 °F 95% 30.06 in 10.0 mi Calm Calm - N/A   Overcast
12:55 AM 42.3 °F 40.6 °F 94% 30.06 in 10.0 mi Calm Calm - N/A   Overcast
1:15 AM 43.2 °F 41.5 °F 94% 30.05 in 10.0 mi Calm Calm - N/A   Overcast
1:55 AM 43.3 °F 41.2 °F 92% 30.06 in 10.0 mi Calm Calm - N/A   Overcast
2:15 AM 43.7 °F 41.4 °F 91% 30.06 in 10.0 mi Calm Calm - N/A   Overcast
2:35 AM 43.7 °F 41.2 °F 91% 30.05 in 10.0 mi Calm Calm - N/A   Overcast
2:55 AM 43.9 °F 39.7 °F 85% 30.06 in 10.0 mi Calm Calm - N/A   Overcast
3:15 AM 44.1 °F 41.7 °F 91% 30.06 in 10.0 mi Calm Calm - N/A   Overcast
3:55 AM 43.2 °F 41.5 °F 94% 30.07 in 10.0 mi Calm Calm - 0.01 in Rain Rain
4:15 AM 41.9 °F 40.5 °F 95% 30.05 in 5.0 mi Calm Calm - 0.02 in Rain Rain
4:35 AM 42.1 °F 41.4 °F 97% 30.05 in 5.0 mi Calm Calm - 0.04 in Rain Rain
4:55 AM 41.5 °F 41.0 °F 98% 30.04 in 7.0 mi Calm Calm - 0.05 in Rain Light Rain
5:15 AM 41.7 °F 41.0 °F 97% 30.05 in 7.0 mi Calm Calm - N/A   Mostly Cloudy
5:35 AM 41.9 °F 40.6 °F 95% 30.06 in 10.0 mi Calm Calm - N/A   Mostly Cloudy
5:55 AM 41.9 °F 41.0 °F 97% 30.06 in 7.0 mi Calm Calm - N/A   Overcast
6:15 AM 41.9 °F 41.2 °F 97% 30.05 in 7.0 mi Calm Calm - N/A   Overcast
6:35 AM 41.9 °F 41.2 °F 97% 30.05 in 7.0 mi Calm Calm - N/A   Overcast
6:55 AM 42.1 °F 41.0 °F 96% 30.06 in 7.0 mi Calm Calm - N/A   Mostly Cloudy
7:15 AM 41.9 °F 41.2 °F 97% 30.06 in 7.0 mi Calm Calm - N/A   Mostly Cloudy
7:35 AM 41.9 °F 41.2 °F 97% 30.06 in 7.0 mi Calm Calm - N/A   Overcast
7:55 AM 42.3 °F 41.9 °F 99% 30.06 in 7.0 mi Calm Calm - N/A   Overcast
8:15 AM 42.8 °F 41.5 °F 95% 30.05 in 10.0 mi Calm Calm - N/A   Mostly Cloudy
8:35 AM 43.2 °F 41.9 °F 95% 30.04 in 10.0 mi Calm Calm - N/A   Mostly Cloudy
8:55 AM 44.1 °F 42.8 °F 95% 30.04 in 10.0 mi Calm Calm - N/A   Scattered Clouds
9:35 AM 48.7 °F 45.5 °F 89% 30.05 in 10.0 mi SW 5.8 mph - N/A   Clear
9:55 AM 49.1 °F 45.3 °F 87% 30.05 in 10.0 mi WSW 3.5 mph - N/A   Mostly Cloudy
10:15 AM 49.3 °F 45.5 °F 87% 30.04 in 10.0 mi SSW 5.8 mph - N/A   Overcast
10:35 AM 48.7 °F 46.4 °F 92% 30.05 in 4.0 mi WSW 4.6 mph - 0.03 in Rain Rain
10:55 AM 49.1 °F 47.3 °F 93% 30.03 in 10.0 mi Calm Calm - 0.03 in Rain Light Rain
11:15 AM 49.1 °F 47.3 °F 93% 30.01 in 10.0 mi Calm Calm - N/A   Overcast
11:35 AM 49.5 °F 48.0 °F 95% 30.00 in 7.0 mi SW 5.8 mph - N/A Rain Light Rain
11:55 AM 50.0 °F 48.4 °F 94% 30.00 in 7.0 mi SW 6.9 mph - N/A Rain Light Rain
12:15 PM 49.6 °F 48.4 °F 95% 30.00 in 5.0 mi West 5.8 mph - N/A Rain Light Rain
12:35 PM 49.5 °F 48.0 °F 95% 29.99 in 5.0 mi SW 5.8 mph - 0.01 in Rain Rain
12:55 PM 49.3 °F 48.2 °F 96% 29.97 in 5.0 mi SW 5.8 mph - 0.01 in Rain Rain
1:35 PM 49.3 °F 48.0 °F 95% 29.96 in 5.0 mi WSW 8.1 mph - 0.02 in Rain Light Rain
1:55 PM 49.3 °F 48.0 °F 95% 29.96 in 7.0 mi West 4.6 mph - 0.02 in Rain Light Rain
2:15 PM 49.5 °F 48.2 °F 95% 29.95 in 5.0 mi WSW 5.8 mph - N/A Rain Rain
2:35 PM 49.1 °F 47.5 °F 94% 29.96 in 7.0 mi SW 5.8 mph - N/A Rain Rain
2:55 PM 49.1 °F 47.5 °F 94% 29.95 in 7.0 mi WSW 4.6 mph - N/A   Drizzle
3:15 PM 49.1 °F 47.5 °F 94% 29.95 in 7.0 mi SW 4.6 mph - N/A Rain Rain
3:35 PM 49.1 °F 47.7 °F 95% 29.95 in 7.0 mi SW 5.8 mph - N/A Rain Light Rain
3:55 PM 49.1 °F 47.5 °F 94% 29.95 in 7.0 mi SW 4.6 mph - N/A   Light Drizzle
4:15 PM 49.1 °F 47.8 °F 95% 29.94 in 5.0 mi SSW 4.6 mph - N/A   Light Drizzle
4:35 PM 49.1 °F 47.7 °F 95% 29.93 in 5.0 mi South 5.8 mph - N/A   Drizzle
4:55 PM 49.1 °F 47.8 °F 95% 29.93 in 5.0 mi WSW 4.6 mph - N/A   Light Drizzle
5:15 PM 48.7 °F 48.0 °F 97% 29.94 in 5.0 mi WSW 5.8 mph - N/A Rain Light Rain
5:35 PM 48.7 °F 47.7 °F 96% 29.93 in 7.0 mi SW 6.9 mph - N/A Rain Light Rain
5:55 PM 48.6 °F 47.7 °F 97% 29.92 in 7.0 mi SW 3.5 mph - N/A Rain Light Rain
6:15 PM 48.6 °F 47.7 °F 97% 29.92 in 5.0 mi SW 4.6 mph - N/A Rain Light Rain
6:35 PM 48.6 °F 47.8 °F 97% 29.92 in 5.0 mi WSW 5.8 mph - N/A   Overcast
6:55 PM 48.7 °F 48.2 °F 98% 29.93 in 5.0 mi Calm Calm - N/A   Light Drizzle
7:15 PM 48.7 °F 48.2 °F 98% 29.93 in 5.0 mi SW 5.8 mph - N/A Rain Light Rain
7:35 PM 48.9 °F 48.2 °F 97% 29.93 in 5.0 mi SW 5.8 mph - N/A Rain Light Rain
7:55 PM 48.9 °F 48.2 °F 97% 29.92 in 5.0 mi SW 5.8 mph - N/A   Overcast
8:15 PM 48.7 °F 48.2 °F 98% 29.91 in 5.0 mi SW 5.8 mph - N/A   Overcast
8:35 PM 49.1 °F 48.6 °F 98% 29.91 in 5.0 mi SW 4.6 mph - N/A   Overcast
8:55 PM 49.5 °F 48.7 °F 97% 29.89 in 5.0 mi SW 4.6 mph - N/A   Overcast
9:15 PM 50.0 °F 49.1 °F 97% 29.90 in 4.0 mi WSW 4.6 mph - N/A   Overcast
9:35 PM 50.0 °F 49.3 °F 97% 29.90 in 2.5 mi WSW 5.8 mph - N/A   Overcast
9:55 PM 50.4 °F 50.0 °F 99% 29.91 in 1.5 mi WSW 8.1 mph 18.4 mph N/A   Overcast
10:15 PM 50.2 °F 50.0 °F 99% 29.91 in 3.0 mi SW 8.1 mph - N/A   Drizzle
10:35 PM 50.4 °F 50.2 °F 99% 29.91 in 3.0 mi SW 8.1 mph - N/A   Overcast
10:55 PM 50.9 °F 50.4 °F 98% 29.91 in 3.0 mi SW 6.9 mph - N/A   Overcast
11:15 PM 50.9 °F 50.4 °F 98% 29.91 in 3.0 mi WSW 6.9 mph - N/A   Light Drizzle
11:35 PM 50.9 °F 50.2 °F 97% 29.91 in 4.0 mi WSW 6.9 mph - N/A Rain Light Rain
11:55 PM 50.5 °F 50.0 °F 98% 29.91 in 3.0 mi WSW 5.8 mph - N/A   Drizzle